This is the latest recevied weather packets stored in our database for station/object PY4QS. If no packets are shown the sender has not sent any weather packets the latest 10 day(s).
| Time | Temp. | Humidity | Pressure | Rain* | Wind** | Luminosity | Snow |
|---|---|---|---|---|---|---|---|
| 1777979910 | 20.56° C | 67% | 1027 hPa | - | - | - | - |
| 1777979298 | 20° C | 68% | 1026.8 hPa | - | - | - | - |
| 1777976849 | 22.22° C | 61% | 1026.4 hPa | - | - | - | - |
| 1777976235 | 20.56° C | 65% | 1026.4 hPa | - | - | - | - |
| 1777972265 | 17.22° C | 77% | 1025.8 hPa | - | - | - | - |
| 1777971959 | 17.22° C | 77% | 1025.7 hPa | - | - | - | - |
| 1777971044 | 17.22° C | 77% | 1025.4 hPa | - | - | - | - |
| 1777965838 | 17.78° C | 76% | 1025 hPa | - | - | - | - |
| 1777961250 | 18.33° C | 76% | 1025.3 hPa | - | - | - | - |
| 1777956040 | 18.33° C | 75% | 1025.4 hPa | - | - | - | - |
| 1777954200 | 18.33° C | 75% | 1025.6 hPa | - | - | - | - |
| 1777951134 | 18.89° C | 74% | 1025.8 hPa | - | - | - | - |
| 1777946236 | 19.44° C | 73% | 1026 hPa | - | - | - | - |
| 1777941036 | 20° C | 74% | 1025.6 hPa | - | - | - | - |
| 1777940119 | 20° C | 74% | 1025.5 hPa | - | - | - | - |
| 1777939504 | 20° C | 74% | 1025.4 hPa | - | - | - | - |
| 1777933078 | 20° C | 77% | 1024.4 hPa | - | - | - | - |
| 1777930615 | 19.44° C | 78% | 1024 hPa | - | - | - | - |
| 1777930542 | 19.44° C | 79% | 1023.9 hPa | - | - | - | - |
| 1777930297 | 19.44° C | 78% | 1023.8 hPa | - | - | - | - |
| 1777929062 | 20° C | 74% | 1023.6 hPa | - | - | - | - |
| 1777928978 | 20° C | 75% | 1023.6 hPa | - | - | - | - |
| 1777928201 | 21.67° C | 69% | 1023.4 hPa | - | - | - | - |
| 1777926360 | 22.78° C | 62% | 1023.2 hPa | - | - | - | - |
| 1777924524 | 23.33° C | 56% | 1022.9 hPa | - | - | - | - |
* Rain since midnight (hover to see other rain measurements)
** Current wind speed in m/s (hover to see current wind gust speed)